Location: Auckland
(36.8670°S, 174.7670°E)
Time: 07:08:57
(UTC+12:00)

Tiros 1 despin weight - Pass Details

Date: 26 July 2019
Orbit: 594 x 642 km, 48.2° (Epoch: 17 August)

Event Time Altitude Azimuth Distance (km) Brightness Sun altitude
Rises 22:31:50 0° 291° (WNW) 2,843 - -59.3°
Reaches altitude 10° 22:34:10 10° 286° (WNW) 1,941 - -59.7°
Maximum altitude 22:38:30 51° 209° (SSW) 765 - -60.5°
Drops below altitude 10° 22:42:52 10° 132° (SE) 1,951 - -61.3°
Sets 22:45:14 0° 127° (SE) 2,860 - -61.7°
